FW3572 Weather Reports


Display with metric or nautical units.
time (UTC)temp
F
wind
direction
speed
MPH
gust
MPH
rain 1hr
in
rain 24hr
in
rain mn
in
humidity
%
barometer
mb
20260504002030 73 94 2.0 13.0 0.00 0.09 0.09 100 1017.2
20260504001530 73 87 2.0 13.0 0.00 0.09 0.09 100 1017.4
20260504001031 73 349 2.0 10.0 0.00 0.09 0.09 100 1017.3
20260504000531 72 82 2.0 10.0 0.00 0.09 0.09 100 1017.3
20260504000029 73 32 1.0 11.0 0.00 0.09 0.09 100 1017.3
20260503235529 73 338 3.0 11.0 0.00 0.09 0.09 100 1017.1
20260503235029 73 84 2.0 9.0 0.00 0.09 0.09 100 1017.1
20260503234533 73 15 3.0 9.0 0.00 0.09 0.09 100 1017.0
20260503234029 73 51 2.0 10.0 0.00 0.09 0.09 100 1017.0
20260503233529 73 25 3.0 10.0 0.00 0.09 0.09 100 1017.0
20260503233028 73 340 1.0 10.0 0.00 0.09 0.09 100 1017.1
20260503232530 73 54 3.0 12.0 0.00 0.09 0.09 100 1017.0
20260503232028 73 47 3.0 10.0 0.00 0.09 0.09 100 1016.9
20260503231528 73 95 4.0 12.0 0.00 0.09 0.09 100 1016.8
20260503231028 73 49 5.0 12.0 0.00 0.09 0.09 100 1016.8
20260503230527 73 360 1.0 8.0 0.00 0.09 0.09 100 1016.9
20260503230028 73 34 2.0 8.0 0.00 0.09 0.09 100 1016.9
20260503225528 73 44 1.0 8.0 0.00 0.09 0.09 100 1016.8
20260503225030 73 61 1.0 4.0 0.00 0.09 0.09 100 1016.9
20260503224528 73 80 0.0 4.0 0.00 0.09 0.09 100 1016.9
20260503224028 73 104 1.0 9.0 0.00 0.09 0.09 100 1016.8
20260503223531 73 23 3.0 9.0 0.00 0.09 0.09 100 1016.8
20260503223027 73 349 1.0 6.0 0.00 0.09 0.09 100 1016.8
20260503222528 73 355 1.0 9.0 0.00 0.09 0.09 100 1016.8
20260503222030 73 344 2.0 9.0 0.00 0.09 0.09 100 1016.8
20260503221527 73 78 1.0 9.0 0.00 0.09 0.09 100 1017.0
20260503221026 73 46 1.0 4.0 0.00 0.09 0.09 100 1017.0
20260503220528 73 80 1.0 7.0 0.00 0.09 0.09 100 1017.1
20260503220026 73 88 1.0 10.0 0.00 0.09 0.09 100 1017.0
20260503215526 73 355 3.0 10.0 0.00 0.09 0.09 100 1016.9
20260503215025 73 360 2.0 5.0 0.00 0.09 0.09 100 1017.0
20260503214526 72 136 1.0 5.0 0.00 0.09 0.09 100 1017.1
20260503214025 72 95 2.0 6.0 0.00 0.09 0.09 100 1017.1
20260503213525 73 46 1.0 6.0 0.00 0.09 0.09 100 1017.0
20260503213026 72 46 1.0 6.0 0.00 0.09 0.09 100 1016.9
20260503212525 72 102 2.0 6.0 0.00 0.09 0.09 100 1017.1
20260503212026 72 98 1.0 6.0 0.00 0.09 0.09 100 1017.1
20260503211524 73 80 0.0 4.0 0.00 0.09 0.09 100 1017.1
20260503211029 72 105 0.0 6.0 0.00 0.09 0.09 100 1017.0
20260503210528 72 119 1.0 6.0 0.00 0.09 0.09 100 1017.2
20260503210023 72 28 0.0 5.0 0.00 0.09 0.09 100 1017.3
20260503205523 72 51 1.0 6.0 0.00 0.09 0.09 100 1017.3
20260503205023 72 360 3.0 8.0 0.00 0.09 0.09 100 1017.3
20260503204528 72 15 3.0 8.0 0.00 0.09 0.09 100 1017.5
20260503204027 72 40 2.0 5.0 0.00 0.09 0.09 100 1017.6
20260503203530 72 355 0.0 5.0 0.00 0.09 0.09 100 1017.6
20260503203024 72 15 1.0 5.0 0.00 0.09 0.09 100 1017.8
20260503202522 72 44 1.0 5.0 0.00 0.09 0.09 100 1017.9
20260503202022 72 41 1.0 6.0 0.00 0.09 0.09 100 1017.9
20260503201522 72 38 2.0 8.0 0.00 0.09 0.09 100 1017.7
20260503201021 72 26 1.0 8.0 0.00 0.09 0.09 100 1017.6
20260503200521 72 40 1.0 6.0 0.00 0.09 0.09 100 1017.7
20260503200022 72 24 1.0 6.0 0.00 0.09 0.09 100 1017.6
20260503195521 72 40 2.0 9.0 0.00 0.09 0.09 100 1017.5
20260503195025 72 24 1.0 11.0 0.00 0.09 0.09 100 1017.6
20260503194521 72 15 1.0 11.0 0.00 0.09 0.09 100 1017.7
20260503194021 72 14 3.0 11.0 0.00 0.09 0.09 100 1017.7
20260503193523 72 9 3.0 8.0 0.00 0.09 0.09 100 1017.7
20260503193035 72 26 3.0 10.0 0.00 0.09 0.09 100 1017.6
20260503192520 71 22 3.0 10.0 0.00 0.09 0.09 100 1017.7
20260503192024 71 341 4.0 10.0 0.00 0.09 0.09 100 1017.7
20260503191520 71 58 3.0 11.0 0.00 0.09 0.09 100 1017.8
20260503191023 71 19 2.0 14.0 0.00 0.09 0.09 100 1018.0
20260503190520 71 10 4.0 14.0 0.00 0.09 0.09 100 1018.0
20260503190020 71 355 3.0 10.0 0.00 0.09 0.09 100 1018.2
20260503185520 71 11 3.0 13.0 0.00 0.09 0.09 100 1018.2
20260503185019 71 38 5.0 13.0 0.00 0.09 0.09 100 1018.2
20260503184524 71 5 4.0 10.0 0.00 0.09 0.09 100 1018.4
20260503184021 71 13 3.0 10.0 0.00 0.09 0.09 100 1018.3
20260503183518 70 55 4.0 10.0 0.00 0.09 0.09 100 1018.4
20260503183019 70 76 4.0 9.0 0.00 0.09 0.09 100 1018.5
20260503182517 70 60 3.0 11.0 0.00 0.09 0.09 100 1018.5
20260503182020 70 360 3.0 11.0 0.00 0.09 0.09 100 1018.6
20260503181518 71 73 4.0 17.0 0.00 0.09 0.09 100 1018.6
20260503181017 71 19 7.0 17.0 0.00 0.09 0.09 100 1018.8
20260503180517 71 42 3.0 12.0 0.00 0.09 0.09 100 1018.8
20260503180019 71 10 4.0 12.0 0.00 0.09 0.09 100 1018.8
20260503175514 71 342 2.0 11.0 0.00 0.09 0.09 100 1018.8
20260503175015 71 28 1.0 9.0 0.00 0.09 0.09 100 1018.8
20260503174515 72 18 3.0 8.0 0.00 0.09 0.09 100 1018.7
20260503174015 72 277 1.0 10.0 0.00 0.09 0.09 100 1018.6
20260503173515 72 30 2.0 11.0 0.00 0.09 0.09 100 1018.8
20260503173022 71 19 4.0 11.0 0.00 0.09 0.09 100 1018.8
20260503172513 71 317 2.0 8.0 0.00 0.09 0.09 100 1018.8
20260503172015 71 348 4.0 9.0 0.00 0.09 0.09 100 1018.9
20260503171521 71 163 3.0 12.0 0.00 0.09 0.09 100 1018.8
20260503171013 71 348 4.0 12.0 0.00 0.09 0.09 100 1018.7
20260503170513 71 340 5.0 12.0 0.00 0.09 0.09 100 1018.8
20260503151005 72 327 2.0 11.0 0.00 0.09 0.09 100 1018.9
20260503150504 72 16 3.0 15.0 0.00 0.09 0.09 100 1018.9
20260503131055 71 5 5.0 12.0 0.00 0.09 0.09 100 1017.7
20260503130558 71 69 4.0 10.0 0.00 0.09 0.09 100 1017.6
20260503110538 70 348 8.0 13.0 0.01 0.09 0.09 100 1016.3
20260503081521 72 317 1.0 4.0 0.00 0.00 0.00 100 1015.6
20260503081024 72 315 2.0 4.0 0.00 0.00 0.00 100 1015.6
20260503080522 72 320 1.0 5.0 0.00 0.00 0.00 100 1015.4
20260503072520 72 303 0.0 3.0 0.00 0.00 0.00 100 1015.0
20260503072020 72 312 0.0 1.0 0.00 0.00 0.00 100 1014.9
20260503071521 72 316 0.0 0.0 0.00 0.00 0.00 100 1014.8
20260503071019 72 316 0.0 2.0 0.00 0.00 0.00 100 1014.7
20260503070519 72 305 0.0 4.0 0.00 0.00 0.00 100 1014.8
20260503055014 73 338 0.0 8.0 0.00 0.00 0.00 100 1015.3
20260503054514 73 240 1.0 8.0 0.00 0.00 0.00 100 1015.4
20260503054013 73 301 2.0 9.0 0.00 0.00 0.00 100 1015.5
20260503053513 73 331 2.0 9.0 0.00 0.00 0.00 100 1015.5
20260503053013 73 287 2.0 7.0 0.00 0.00 0.00 100 1015.7
20260503052512 73 275 2.0 6.0 0.00 0.00 0.00 100 1015.7
20260503052012 73 340 2.0 8.0 0.00 0.00 0.00 100 1015.6
20260503051515 73 297 2.0 8.0 0.00 0.00 0.00 100 1015.7
20260503051015 73 291 2.0 5.0 0.00 0.00 0.00 100 1015.7
20260503050514 73 246 1.0 7.0 0.00 0.00 0.00 100 1015.7
20260503050017 73 240 0.0 8.0 0.00 0.00 0.00 100 1015.8
20260503045509 74 239 3.0 8.0 0.00 0.00 0.00 100 1015.6
20260503045012 74 242 1.0 7.0 0.00 0.00 0.00 100 1015.6
20260503044507 74 318 1.0 7.0 0.00 0.00 0.00 100 1015.5
20260503044010 74 251 0.0 3.0 0.00 0.00 0.00 100 1015.4
20260503043505 74 259 1.0 3.0 0.00 0.00 0.00 100 1015.4
20260503043006 74 312 0.0 3.0 0.00 0.00 0.00 100 1015.2
20260503042505 74 312 1.0 5.0 0.00 0.00 0.00 100 1015.0
20260503042004 74 313 1.0 5.0 0.00 0.00 0.00 100 1015.0
20260503041506 74 307 1.0 8.0 0.00 0.00 0.00 100 1014.8
20260503041001 74 333 2.0 8.0 0.00 0.00 0.00 100 1015.1
20260503040502 74 297 2.0 7.0 0.00 0.00 0.00 100 1015.2
20260503040000 75 297 2.0 6.0 0.00 0.00 0.00 100 1015.2
20260503035600 75 317 2.0 8.0 0.00 0.00 0.00 100 1015.2
20260503035059 75 271 3.0 8.0 0.00 0.00 0.00 100 1015.3
20260503035002 75 262 3.0 8.0 0.00 0.00 0.00 100 1015.3
20260503034613 75 247 2.0 8.0 0.00 0.00 0.00 100 1015.2
20260503034058 75 333 1.0 9.0 0.00 0.00 0.00 100 1015.3
20260503033557 75 317 3.0 9.0 0.00 0.00 0.00 100 1014.9
20260503033059 75 336 2.0 11.0 0.00 0.00 0.00 100 1014.8
20260503032555 75 268 5.0 11.0 0.00 0.00 0.00 100 1014.6
20260503032055 75 269 3.0 9.0 0.00 0.00 0.00 100 1014.5
20260503031557 75 267 2.0 6.0 0.00 0.00 0.00 100 1014.2
20260503031053 76 306 1.0 4.0 0.00 0.00 0.00 100 1013.9
20260503030551 75 290 0.0 4.0 0.00 0.00 0.00 100 1013.6
20260503030056 75 265 1.0 5.0 0.00 0.00 0.00 100 1013.6
20260503025550 75 249 1.0 5.0 0.00 0.00 0.00 100 1013.3
20260503025052 76 248 0.0 5.0 0.00 0.00 0.00 100 1013.0
20260503024550 76 245 0.0 5.0 0.00 0.00 0.00 100 1013.2
20260503024050 76 297 0.0 3.0 0.00 0.00 0.00 100 1013.2
20260503023549 76 298 1.0 4.0 0.00 0.00 0.00 100 1013.4
20260503023057 75 293 1.0 5.0 0.00 0.00 0.00 100 1013.1
20260503022548 75 176 3.0 5.0 0.00 0.00 0.00 100 1012.6
20260503022049 75 185 2.0 6.0 0.00 0.00 0.00 100 1012.7
20260503021552 75 190 3.0 6.0 0.00 0.00 0.00 100 1012.9
20260503021048 75 157 2.0 6.0 0.00 0.00 0.00 100 1013.2
20260503020549 76 184 3.0 9.0 0.00 0.00 0.00 100 1013.1
20260503020048 76 202 2.0 6.0 0.00 0.00 0.00 100 1013.0
20260503015547 77 197 2.0 7.0 0.00 0.00 0.00 100 1013.1
20260503015047 77 234 2.0 5.0 0.00 0.00 0.00 100 1013.2
20260503014547 77 200 2.0 5.0 0.00 0.00 0.00 100 1013.1
20260503014050 77 228 2.0 5.0 0.00 0.00 0.00 100 1013.1
20260503013547 77 235 2.0 4.0 0.00 0.00 0.00 100 1013.1
20260503013054 77 224 2.0 3.0 0.00 0.00 0.00 100 1013.1
20260503012548 77 222 1.0 4.0 0.00 0.00 0.00 100 1013.1
20260503012047 78 236 0.0 4.0 0.00 0.00 0.00 100 1013.1
20260503011601 78 237 1.0 3.0 0.00 0.00 0.00 100 1013.1
20260503011046 78 238 1.0 3.0 0.00 0.00 0.00 100 1013.0
20260503010548 78 238 1.0 3.0 0.00 0.00 0.00 100 1013.1
20260503010116 78 238 0.0 3.0 0.00 0.00 0.00 100 1013.1
20260503005548 78 238 1.0 3.0 0.00 0.00 0.00 100 1012.9
20260503005048 78 241 1.0 8.0 0.00 0.00 0.00 100 1012.9
20260503004546 78 242 2.0 8.0 0.00 0.00 0.00 100 1013.3
20260503004045 78 294 1.0 6.0 0.00 0.00 0.00 100 1013.4
20260503003547 78 294 2.0 7.0 0.00 0.00 0.00 100 1013.3
20260503003046 78 243 2.0 7.0 0.00 0.00 0.00 100 1013.3
20260503002545 78 317 2.0 8.0 0.00 0.00 0.00 100 1013.3